Time,TemperatureF,DewpointF,PressureIn,WindDirection,WindDirectionDegrees,WindSpeedMPH,WindSpeedGustMPH,Humidity,HourlyPrecipIn,Conditions,Clouds,dailyrainin,SoftwareType,DateUTC
2013-01-27 00:10:00,15.1,10.1,30.12,North,0,0.0,-999.0,80,-99.99,,,0.00,Acu-Link.com,2013-01-27 05:10:00,
2013-01-27 00:26:00,14.4,9.7,30.11,West,270,0.0,-999.0,81,-99.99,,,0.00,Acu-Link.com,2013-01-27 05:26:00,
2013-01-27 00:41:00,13.8,9.6,30.12,SW,225,0.0,-999.0,83,-99.99,,,0.00,Acu-Link.com,2013-01-27 05:41:00,
2013-01-27 00:56:00,13.3,9.7,30.12,NNE,22,0.0,-999.0,85,-99.99,,,0.00,Acu-Link.com,2013-01-27 05:56:00,
2013-01-27 01:11:00,12.9,9.8,30.12,SW,225,0.0,-999.0,87,-99.99,,,0.00,Acu-Link.com,2013-01-27 06:11:00,
2013-01-27 01:26:00,12.2,9.1,30.13,NNW,337,0.0,-999.0,87,-99.99,,,0.00,Acu-Link.com,2013-01-27 06:26:00,
2013-01-27 01:41:00,12.2,9.6,30.14,NNE,22,0.0,-999.0,89,-99.99,,,0.00,Acu-Link.com,2013-01-27 06:41:00,
2013-01-27 01:56:00,12.0,9.9,30.14,SE,135,0.0,-999.0,91,-99.99,,,0.00,Acu-Link.com,2013-01-27 06:56:00,
2013-01-27 02:26:00,11.7,10.1,30.15,SSW,202,0.0,-999.0,93,-99.99,,,0.00,Acu-Link.com,2013-01-27 07:26:00,
2013-01-27 02:42:00,11.3,9.7,30.15,NNW,337,0.0,-999.0,93,-99.99,,,0.00,Acu-Link.com,2013-01-27 07:42:00,
2013-01-27 02:57:00,11.1,9.5,30.15,NNW,337,0.0,-999.0,93,-99.99,,,0.00,Acu-Link.com,2013-01-27 07:57:00,
2013-01-27 03:12:00,11.3,9.9,30.14,SW,225,0.0,-999.0,94,-99.99,,,0.00,Acu-Link.com,2013-01-27 08:12:00,
2013-01-27 03:27:00,11.3,10.2,30.14,NNW,337,0.0,-999.0,95,-99.99,,,0.00,Acu-Link.com,2013-01-27 08:27:00,
2013-01-27 03:42:00,11.5,10.6,30.14,West,270,0.0,-999.0,96,-99.99,,,0.00,Acu-Link.com,2013-01-27 08:42:00,
2013-01-27 03:57:00,11.5,10.6,30.15,NNW,337,0.0,-999.0,96,-99.99,,,0.00,Acu-Link.com,2013-01-27 08:57:00,
2013-01-27 04:17:00,11.5,10.6,30.15,North,0,0.0,-999.0,96,-99.99,,,0.00,Acu-Link.com,2013-01-27 09:17:00,
2013-01-27 04:32:00,11.5,10.4,30.15,West,270,0.0,-999.0,95,-99.99,,,0.00,Acu-Link.com,2013-01-27 09:32:00,
2013-01-27 04:47:00,11.3,10.2,30.15,West,270,0.0,-999.0,95,-99.99,,,0.00,Acu-Link.com,2013-01-27 09:47:00,
2013-01-27 05:02:00,11.3,10.2,30.15,WSW,247,0.0,-999.0,95,-99.99,,,0.00,Acu-Link.com,2013-01-27 10:02:00,
2013-01-27 05:17:00,11.5,10.4,30.15,NNE,22,0.0,-999.0,95,-99.99,,,0.00,Acu-Link.com,2013-01-27 10:17:00,
2013-01-27 05:32:00,11.7,10.6,30.16,SW,225,0.0,-999.0,95,-99.99,,,0.00,Acu-Link.com,2013-01-27 10:32:00,
2013-01-27 05:47:00,11.5,10.1,30.16,NW,315,0.0,-999.0,94,-99.99,,,0.00,Acu-Link.com,2013-01-27 10:47:00,
2013-01-27 06:03:00,10.9,9.5,30.17,NNE,22,0.0,-999.0,94,-99.99,,,0.00,Acu-Link.com,2013-01-27 11:03:00,
2013-01-27 06:18:00,11.5,10.4,30.18,WNW,292,0.0,-999.0,95,-99.99,,,0.00,Acu-Link.com,2013-01-27 11:18:00,
2013-01-27 06:33:00,11.5,10.4,30.18,SW,225,0.0,-999.0,95,-99.99,,,0.00,Acu-Link.com,2013-01-27 11:33:00,
2013-01-27 06:48:00,11.5,10.4,30.18,ESE,112,0.0,-999.0,95,-99.99,,,0.00,Acu-Link.com,2013-01-27 11:48:00,
2013-01-27 07:03:00,11.5,10.1,30.18,SW,225,0.0,-999.0,94,-99.99,,,0.00,Acu-Link.com,2013-01-27 12:03:00,
2013-01-27 07:18:00,12.0,10.8,30.19,NNW,337,0.0,-999.0,95,-99.99,,,0.00,Acu-Link.com,2013-01-27 12:18:00,
2013-01-27 07:33:00,12.9,11.5,30.19,South,180,0.0,-999.0,94,-99.99,,,0.00,Acu-Link.com,2013-01-27 12:33:00,
2013-01-27 07:48:00,14.2,12.6,30.19,SE,135,0.0,-999.0,93,-99.99,,,0.00,Acu-Link.com,2013-01-27 12:48:00,
2013-01-27 08:03:00,15.4,13.0,30.20,WNW,292,0.0,-999.0,90,-99.99,,,0.00,Acu-Link.com,2013-01-27 13:03:00,
2013-01-27 08:19:00,17.4,13.7,30.19,SSW,202,0.0,-999.0,85,-99.99,,,0.00,Acu-Link.com,2013-01-27 13:19:00,
2013-01-27 08:34:00,20.1,15.2,30.21,SE,135,0.0,-999.0,81,-99.99,,,0.00,Acu-Link.com,2013-01-27 13:34:00,
2013-01-27 08:49:00,21.4,15.9,30.20,SSW,202,1.1,-999.0,79,-99.99,,,0.00,Acu-Link.com,2013-01-27 13:49:00,
2013-01-27 09:04:00,23.0,16.9,30.22,SSW,202,0.0,-999.0,77,-99.99,,,0.00,Acu-Link.com,2013-01-27 14:04:00,
2013-01-27 09:19:00,24.3,17.8,30.22,NNE,22,2.2,-999.0,76,-99.99,,,0.00,Acu-Link.com,2013-01-27 14:19:00,
2013-01-27 09:34:00,25.0,18.2,30.22,South,180,2.2,-999.0,75,-99.99,,,0.00,Acu-Link.com,2013-01-27 14:34:00,
2013-01-27 09:49:00,26.1,19.0,30.22,South,180,1.7,-999.0,74,-99.99,,,0.00,Acu-Link.com,2013-01-27 14:49:00,
2013-01-27 10:04:00,26.2,18.4,30.23,ENE,67,5.3,-999.0,72,-99.99,,,0.00,Acu-Link.com,2013-01-27 15:04:00,
2013-01-27 10:19:00,27.5,18.7,30.23,ESE,112,2.2,-999.0,69,-99.99,,,0.00,Acu-Link.com,2013-01-27 15:19:00,
2013-01-27 10:35:00,28.4,18.9,30.24,ESE,112,6.3,-999.0,67,-99.99,,,0.00,Acu-Link.com,2013-01-27 15:35:00,
2013-01-27 10:50:00,29.3,19.0,30.24,NNE,22,2.7,-999.0,65,-99.99,,,0.00,Acu-Link.com,2013-01-27 15:50:00,
2013-01-27 11:05:00,29.7,18.7,30.24,WNW,292,4.2,-999.0,63,-99.99,,,0.00,Acu-Link.com,2013-01-27 16:05:00,
2013-01-27 11:20:00,30.6,19.2,30.24,South,180,5.3,-999.0,62,-99.99,,,0.00,Acu-Link.com,2013-01-27 16:20:00,
2013-01-27 11:35:00,31.5,19.2,30.22,East,90,2.2,-999.0,60,-99.99,,,0.00,Acu-Link.com,2013-01-27 16:35:00,
2013-01-27 11:50:00,31.1,18.1,30.22,East,90,4.2,-999.0,58,-99.99,,,0.00,Acu-Link.com,2013-01-27 16:50:00,
2013-01-27 12:05:00,32.2,18.7,30.22,SSW,202,1.7,-999.0,57,-99.99,,,0.00,Acu-Link.com,2013-01-27 17:05:00,
2013-01-27 12:20:00,33.6,19.6,30.21,NNW,337,2.2,-999.0,56,-99.99,,,0.00,Acu-Link.com,2013-01-27 17:20:00,
2013-01-27 12:35:00,33.8,19.8,30.20,East,90,2.7,-999.0,56,-99.99,,,0.00,Acu-Link.com,2013-01-27 17:35:00,
2013-01-27 12:51:00,33.8,18.5,30.19,SW,225,2.2,-999.0,53,-99.99,,,0.01,Acu-Link.com,2013-01-27 17:51:00,
2013-01-27 13:06:00,34.9,19.5,30.19,SSE,157,1.7,-999.0,53,-99.99,,,0.01,Acu-Link.com,2013-01-27 18:06:00,
2013-01-27 13:21:00,34.0,18.7,30.18,SW,225,3.2,-999.0,53,-99.99,,,0.01,Acu-Link.com,2013-01-27 18:21:00,
2013-01-27 13:36:00,34.2,18.4,30.18,ESE,112,1.1,-999.0,52,-99.99,,,0.01,Acu-Link.com,2013-01-27 18:36:00,
2013-01-27 13:51:00,34.7,19.3,30.18,SSW,202,2.2,-999.0,53,-99.99,,,0.01,Acu-Link.com,2013-01-27 18:51:00,
2013-01-27 14:06:00,34.9,19.5,30.19,NE,45,4.2,-999.0,53,-99.99,,,0.01,Acu-Link.com,2013-01-27 19:06:00,
2013-01-27 14:21:00,35.2,19.4,30.18,ESE,112,3.7,-999.0,52,-99.99,,,0.01,Acu-Link.com,2013-01-27 19:21:00,
2013-01-27 14:36:00,36.7,20.3,30.18,South,180,2.2,-999.0,51,-99.99,,,0.01,Acu-Link.com,2013-01-27 19:36:00,
2013-01-27 14:51:00,35.4,20.0,30.17,South,180,4.7,-999.0,53,-99.99,,,0.01,Acu-Link.com,2013-01-27 19:51:00,
2013-01-27 15:06:00,35.8,19.5,30.17,SSW,202,1.7,-999.0,51,-99.99,,,0.01,Acu-Link.com,2013-01-27 20:06:00,
2013-01-27 15:22:00,35.2,18.9,30.17,West,270,1.7,-999.0,51,-99.99,,,0.01,Acu-Link.com,2013-01-27 20:22:00,
2013-01-27 15:37:00,35.4,19.1,30.18,South,180,1.7,-999.0,51,-99.99,,,0.01,Acu-Link.com,2013-01-27 20:37:00,
2013-01-27 15:52:00,35.2,18.9,30.17,SSE,157,0.0,-999.0,51,-99.99,,,0.01,Acu-Link.com,2013-01-27 20:52:00,
2013-01-27 16:07:00,34.5,18.7,30.18,WSW,247,3.2,-999.0,52,-99.99,,,0.01,Acu-Link.com,2013-01-27 21:07:00,
2013-01-27 16:22:00,33.8,18.5,30.18,North,0,1.1,-999.0,53,-99.99,,,0.01,Acu-Link.com,2013-01-27 21:22:00,
2013-01-27 16:37:00,33.1,19.1,30.18,SW,225,0.0,-999.0,56,-99.99,,,0.01,Acu-Link.com,2013-01-27 21:37:00,
2013-01-27 16:53:00,32.4,18.1,30.19,SW,225,1.7,-999.0,55,-99.99,,,0.01,Acu-Link.com,2013-01-27 21:53:00,
2013-01-27 17:08:00,31.1,18.1,30.19,WNW,292,0.0,-999.0,58,-99.99,,,0.01,Acu-Link.com,2013-01-27 22:08:00,
2013-01-27 17:23:00,30.0,17.4,30.20,ESE,112,1.7,-999.0,59,-99.99,,,0.01,Acu-Link.com,2013-01-27 22:23:00,
2013-01-27 17:38:00,29.5,17.0,30.20,NW,315,1.1,-999.0,59,-99.99,,,0.01,Acu-Link.com,2013-01-27 22:38:00,
2013-01-27 17:53:00,29.1,16.6,30.19,SW,225,0.0,-999.0,59,-99.99,,,0.01,Acu-Link.com,2013-01-27 22:53:00,
2013-01-27 18:08:00,28.0,15.9,30.20,SW,225,0.0,-999.0,60,-99.99,,,0.01,Acu-Link.com,2013-01-27 23:08:00,
2013-01-27 18:23:00,27.1,16.2,30.21,WNW,292,0.0,-999.0,63,-99.99,,,0.01,Acu-Link.com,2013-01-27 23:23:00,
2013-01-27 18:38:00,26.2,16.1,30.22,SW,225,0.0,-999.0,65,-99.99,,,0.01,Acu-Link.com,2013-01-27 23:38:00,
2013-01-27 18:53:00,25.5,16.4,30.23,SW,225,0.0,-999.0,68,-99.99,,,0.01,Acu-Link.com,2013-01-27 23:53:00,
2013-01-27 19:09:00,24.6,16.6,30.22,WSW,247,0.0,-999.0,71,-99.99,,,0.01,Acu-Link.com,2013-01-28 00:09:00,
2013-01-27 19:24:00,23.9,16.2,30.21,West,270,0.0,-999.0,72,-99.99,,,0.01,Acu-Link.com,2013-01-28 00:24:00,
2013-01-27 19:39:00,23.0,16.3,30.21,NE,45,0.0,-999.0,75,-99.99,,,0.01,Acu-Link.com,2013-01-28 00:39:00,
2013-01-27 19:54:00,22.5,15.8,30.21,West,270,0.0,-999.0,75,-99.99,,,0.01,Acu-Link.com,2013-01-28 00:54:00,
2013-01-27 20:09:00,21.7,15.3,30.20,SW,225,0.0,-999.0,76,-99.99,,,0.01,Acu-Link.com,2013-01-28 01:09:00,
2013-01-27 20:24:00,21.7,15.9,30.20,WNW,292,0.0,-999.0,78,-99.99,,,0.01,Acu-Link.com,2013-01-28 01:24:00,
2013-01-27 20:39:00,21.6,16.7,30.22,West,270,0.0,-999.0,81,-99.99,,,0.01,Acu-Link.com,2013-01-28 01:39:00,
2013-01-27 20:54:00,21.2,16.3,30.22,NNW,337,0.0,-999.0,81,-99.99,,,0.01,Acu-Link.com,2013-01-28 01:54:00,
2013-01-27 21:09:00,20.8,16.5,30.23,NW,315,0.0,-999.0,83,-99.99,,,0.01,Acu-Link.com,2013-01-28 02:09:00,
2013-01-27 21:25:00,20.5,16.4,30.22,ESE,112,0.0,-999.0,84,-99.99,,,0.01,Acu-Link.com,2013-01-28 02:25:00,
2013-01-27 21:40:00,19.9,16.4,30.21,NNE,22,0.0,-999.0,86,-99.99,,,0.01,Acu-Link.com,2013-01-28 02:40:00,
2013-01-27 21:55:00,19.6,16.6,30.21,NW,315,0.0,-999.0,88,-99.99,,,0.01,Acu-Link.com,2013-01-28 02:55:00,
2013-01-27 22:10:00,19.2,16.2,30.20,NW,315,0.0,-999.0,88,-99.99,,,0.01,Acu-Link.com,2013-01-28 03:10:00,
2013-01-27 22:25:00,19.2,16.8,30.20,North,0,0.0,-999.0,90,-99.99,,,0.01,Acu-Link.com,2013-01-28 03:25:00,
2013-01-27 22:40:00,18.9,17.0,30.21,SW,225,0.0,-999.0,92,-99.99,,,0.01,Acu-Link.com,2013-01-28 03:40:00,
2013-01-27 22:55:00,18.7,17.0,30.20,East,90,0.0,-999.0,93,-99.99,,,0.01,Acu-Link.com,2013-01-28 03:55:00,
2013-01-27 23:11:00,19.4,18.2,30.20,SW,225,0.0,-999.0,95,-99.99,,,0.01,Acu-Link.com,2013-01-28 04:11:00,
2013-01-27 23:26:00,18.5,16.8,30.19,WNW,292,0.0,-999.0,93,-99.99,,,0.01,Acu-Link.com,2013-01-28 04:26:00,
2013-01-27 23:41:00,18.0,16.6,30.19,West,270,0.0,-999.0,94,-99.99,,,0.01,Acu-Link.com,2013-01-28 04:41:00,
2013-01-27 23:56:00,18.0,16.8,30.20,North,0,0.0,-999.0,95,-99.99,,,0.01,Acu-Link.com,2013-01-28 04:56:00,